This is the latest recevied weather packets stored in our database for station/object W6MAF. If no packets are shown the sender has not sent any weather packets the latest 10 day(s).
| Time | Temp. | Humidity | Pressure | Rain* | Wind** | Luminosity | Snow |
|---|---|---|---|---|---|---|---|
| 1788655673 | 25.56° C | 16% | - | 0 mm | 7.6 m/s, 177° | - | - |
| 1788655371 | 25.56° C | 16% | - | 0 mm | 6.26 m/s, 183° | - | - |
| 1788655073 | 25.56° C | 16% | - | 0 mm | 6.71 m/s, 170° | - | - |
| 1788654776 | 25.56° C | 15% | - | 0 mm | 6.26 m/s, 193° | - | - |
| 1788654478 | 25.56° C | 15% | - | 0 mm | 6.71 m/s, 170° | - | - |
| 1788654180 | 25.56° C | 15% | - | 0 mm | 6.26 m/s, 194° | - | - |
| 1788653882 | 26.11° C | 14% | - | 0 mm | 5.36 m/s, 205° | - | - |
| 1788653582 | 26.11° C | 13% | - | 0 mm | 5.36 m/s, 200° | - | - |
| 1788653284 | 26.11° C | 15% | - | 0 mm | 4.92 m/s, 179° | - | - |
| 1788652986 | 26.11° C | 14% | - | 0 mm | 8.05 m/s, 205° | - | - |
| 1788652688 | 26.11° C | 14% | - | 0 mm | 8.49 m/s, 173° | - | - |
| 1788652391 | 26.11° C | 13% | - | 0 mm | 7.15 m/s, 205° | - | - |
| 1788652093 | 26.67° C | 13% | - | 0 mm | 7.6 m/s, 205° | - | - |
| 1788651792 | 26.11° C | 12% | - | 0 mm | 6.71 m/s, 158° | - | - |
| 1788651494 | 26.67° C | 11% | - | 0 mm | 6.71 m/s, 198° | - | - |
| 1788651196 | 26.67° C | 11% | - | 0 mm | 6.71 m/s, 200° | - | - |
| 1788650899 | 26.67° C | 11% | - | 0 mm | 6.26 m/s, 200° | - | - |
| 1788650601 | 26.67° C | 10% | - | 0 mm | 6.26 m/s, 210° | - | - |
| 1788650303 | 26.67° C | 10% | - | 0 mm | 8.05 m/s, 208° | - | - |
| 1788650002 | 26.67° C | 9% | - | 0 mm | 8.94 m/s, 197° | - | - |
| 1788649705 | 26.67° C | 7% | - | 0 mm | 5.81 m/s, 187° | - | - |
| 1788649407 | 26.67° C | 7% | - | 0 mm | 5.36 m/s, 204° | - | - |
| 1788649109 | 26.67° C | 7% | - | 0 mm | 8.94 m/s, 197° | - | - |
| 1788648811 | 26.67° C | 7% | - | 0 mm | 7.6 m/s, 210° | - | - |
| 1788648514 | 26.67° C | 6% | - | 0 mm | 7.15 m/s, 194° | - | - |
* Rain latest hour (hover to see other rain measurements)
** Current wind speed in m/s (hover to see current wind gust speed)